Regional Weather Roundup
Issued by NWS

Home | Current Version | Previous Version | Graphics & Text | Print | Product List | Glossary On
Versions: 1 2 3 4 5 6 7 8 9 10 11 12 13 14 15 16 17 18 19 20 21 22 23 24 25 26 27 28 29 30 31 32 33 34 35 36 37 38 39 40 41 42 43 44 45 46 47 48 49 50
917
ASUS43 KMPX 231010
RWRMN
WEATHER ROUNDUP FOR MINNESOTA
NATIONAL WEATHER SERVICE TWIN CITIES/CHANHASSEN MN
400 AM CST TUE JAN 23 2018


NOTE: "FAIR" INDICATES FEW OR NO CLOUDS BELOW 12,000 FEET WITH NO
SIGNIFICANT WEATHER AND/OR OBSTRUCTIONS TO VISIBILITY. N/A MEANS
CURRENT SKY AND/OR WEATHER CONDITIONS ARE NOT AVAILABLE.

MNZ060>063-068>070-231100-
   Twin Cities Metro

CITY           SKY/WX    TMP DP  RH WIND       PRES   REMARKS
TWIN CITIES    FAIR      21  15  78 N20       29.89R WCI   6
ST PAUL        FAIR      20  13  74 NW16      29.90R WCI   6
CRYSTAL        FAIR      20  11  68 N10       29.89R WCI   9
BLAINE         FAIR      19  16  86 N12       29.89R WCI   7
LAKEVILLE      FAIR      19  16  86 N14       29.87R WCI   6
EDEN PRAIRIE   FAIR      21  14  74 NW10      29.88R WCI  10
SOUTH ST PAUL  FAIR      21  14  75 N8        29.88R WCI  12
LAKE ELMO      FAIR      19  14  79 N9        29.88R WCI   9
$$
MNZ001>005-007-008-013>017-022>024-027-028-231100-
   Northwest Minnesota

CITY           SKY/WX    TMP DP  RH WIND       PRES   REMARKS
BEMIDJI        CLOUDY    18  14  84 N7        30.01R WCI   9
HALLOCK        CLOUDY    21  16  79 SE5       30.06F WCI  15
ROSEAU         CLOUDY    19  14  79 CALM      30.06S
WARROAD        CLOUDY    18  12  79 NE5       30.07R WCI  11
THIEF RVR FALL CLOUDY    17  14  88 N7        30.06S WCI   8
CROOKSTON      CLOUDY    19  16  86 N6        30.08F WCI  11
FOSSTON        CLOUDY    18  12  79 N8        30.04S WCI   7
DETROIT LAKES  CLOUDY    21  18  86 N3        30.03R
MOORHEAD       CLOUDY    19  16  86 N5        30.07S WCI  13
PARK RAPIDS    CLOUDY    19  13  77 N9        29.98R WCI   8
MAHNOMEN       CLOUDY    19  15  84 N12       30.03S WCI   7
$$
MNZ006-009>011-018-025>026-231100-
   North Central Minnesota

CITY           SKY/WX    TMP DP  RH WIND       PRES   REMARKS
BAUDETTE       CLOUDY    14   9  80 N3        30.04S
FLAG ISLAND    CLOUDY    14   9  79 NE5       30.06S WCI   6
INTL FALLS     FAIR       7   2  80 N8        30.04R WCI  -6
WASKISH        CLOUDY    16  12  86 N3        30.03S
BIG FORK       FLURRIES   9   7  92 N3        30.00R
LONGVILLE      CLOUDY    16  12  86 N5        29.98R WCI   9
CRANE LAKE     FAIR       1   0  92 NW5       30.04R WCI  -8
ORR            FAIR       1  -2  85 CALM      29.97R
COOK           CLOUDY     3   0  85 CALM      29.98R
WALKER         FAIR      16  12  86 NW8       29.99R WCI   5
$$
MNZ012-019>021-037-231100-
   Northeast Minnesota

CITY           SKY/WX    TMP DP  RH WIND       PRES   REMARKS
DULUTH         CLOUDY    10   5  80 N14       29.88S WCI  -6
ELY            FAIR       1  -2  85 N3        29.95R
HIBBING        FAIR       5   2  87 N10       29.95R WCI -10
EVELETH        FAIR       6  -1  75 N7        29.95R WCI  -6
DULUTH HARBOR  CLOUDY    18  12  79 N15       29.95R WCI   3
TWO HARBORS    CLOUDY    12   7  79 N7        29.89R WCI   2
SILVER BAY     CLOUDY    10   7  85 N6        29.89R WCI   1
GRAND MARAIS     N/A     13   2  61 VRB3      29.93R
G MARAIS ARPRT CLOUDY     3  -6  66 NW13      29.84R WCI -14
$$
MNZ029>031-032-039>041-046>048-054>057-064-231100-
   West Central Minnesota

CITY           SKY/WX    TMP DP  RH WIND       PRES   REMARKS
FERGUS FALLS   CLOUDY    21  16  79 N12       30.04R WCI   9
WHEATON        CLOUDY    21  18  86 N14       30.07R WCI   8
MORRIS         CLOUDY    23  18  80 NW12      30.01R WCI  12
ALEXANDRIA     CLOUDY    21  16  81 N10       29.99R WCI  10
ELBOW LAKE     CLOUDY    22  17  84 NW10      30.03R FOG     WCI  11
WADENA         FAIR      18  14  86 N8        29.99R WCI   7
GLENWOOD       FAIR      21  18  86 N14       29.99R WCI   8
APPLETON       CLOUDY    25  18  74 N17       30.03R WCI  11
BENSON         CLOUDY    25  18  74 N14       30.02S WCI  13
ORTONVILLE     CLOUDY    21  18  86 N12       30.04R WCI   9
MADISON        CLOUDY    27  21  80 N16       30.04R WCI  14
WILLMAR        FAIR      21  19  93 NW17      30.01R WCI   7
$$
MNZ033>034-036-042>043-049>051-058-059-231100-
   Central Minnesota

CITY           SKY/WX    TMP DP  RH WIND       PRES   REMARKS
ST CLOUD       FAIR      19  15  84 N10       29.93R WCI   7
SAUK CENTRE      N/A     20  16  83 NW9       29.98R WCI   9
PAYNESVILLE    FAIR      20  18  91 NW9       29.97R WCI   9
AITKIN         FAIR      10   9  92 N8        29.95R WCI  -1
PINE RIVER     MOCLDY    14  10  85 NW3       30.01R
BRAINERD       FAIR      17  12  80 N9        29.96R WCI   6
STAPLES        FAIR      14  10  85 NW7       29.98R WCI   4
LONG PRAIRIE   FAIR      19  14  79 W8        29.97S WCI   9
LITTLE FALLS   FAIR      19  10  68 NW6       29.97R WCI  11
LITCHFIELD     FAIR      21  18  86 NW12      29.95R WCI   9
BUFFALO        FAIR      20  15  79 NW8       29.94R WCI  11
MAPLE LAKE     FAIR      22  18  84 MISG      29.93S
HUTCHINSON     FAIR      21  17  83 NW12      29.95R WCI  10
$$
MNZ037-044-045-052-053-231100-
   East Central Minnesota

CITY           SKY/WX    TMP DP  RH WIND       PRES   REMARKS
PRINCETON      FAIR      19  16  86 NW9       29.92R WCI   9
MORA           FAIR      18  12  79 N6        29.93R WCI   9
CAMBRIDGE      FAIR      19  12  73 NW8       29.91S WCI   9
RUSH CITY      FAIR      17  11  80 N9        29.91R WCI   5
MOOSE LAKE     CLOUDY    14  10  85 N10       29.91R WCI   1
HINCKLEY       FAIR      18  12  79 N10G18    29.91R WCI   6
CLOQUET        CLOUDY    10   5  79 NW12G25   29.90S WCI  -4
MCGREGOR       FAIR      14  10  85 N12       29.95R WCI   0
$$
MNZ071>073-080-081-089-090-097-098-231100-
   Southwest Minnesota

CITY           SKY/WX    TMP DP  RH WIND       PRES   REMARKS
MONTEVIDEO     CLOUDY    25  18  74 N16       30.01S WCI  12
GRANITE FALLS  CLOUDY    26  20  80 NW10      30.02R WCI  16
CANBY          CLOUDY    24  21  87 W16       30.03S WCI  11
MARSHALL       CLOUDY    23  19  85 N22       30.00R WCI   8
REDWOOD FALLS  PTCLDY    22  18  85 NW13      29.98R WCI  10
OLIVIA         CLEAR     21  18  86 NW9       29.98R WCI  11
PIPESTONE      CLOUDY    19  19 100 N12G18    29.98S WCI   7
WINDOM         CLOUDY    21   9  58 NW24G30   29.95R WCI   4
WORTHINGTON    FLURRIES  22  20  92 N22       29.96R WCI   6
JACKSON        CLOUDY    23  19  86 N22G36    29.94R WCI   8
TRACY          CLOUDY    24  22  93 NW17      29.98R WCI  10
SLAYTON        CLOUDY    21  20  96 NW23      29.97R WCI   5
$$
MNZ065>067-074>077-082>085-091>093-231100-
   South Central Minnesota

CITY           SKY/WX    TMP DP  RH WIND       PRES   REMARKS
MANKATO        FAIR      22  16  78 NW16      29.91R WCI   8
NEW ULM        CLOUDY    21  16  79 NW17      29.94R WCI   7
ST JAMES       CLOUDY    21  19  93 NW16      29.95R WCI   7
FAIRMONT       CLOUDY    23  21  92 NW23      29.92R WCI   7
FARIBAULT      FAIR      21  16  79 NW13G22   29.87R WCI   9
OWATONNA       CLOUDY    23  18  80 NW17      29.85  WCI   9
WASECA         CLOUDY    23  19  86 NW21      29.89R WCI   8
ALBERT LEA     CLOUDY    25  19  80 NW15G23   29.84R WCI  12
$$
MNZ078>079-086>088-094>096-231100-
   Southeast Minnesota

CITY           SKY/WX    TMP DP  RH WIND       PRES   REMARKS
ROCHESTER      FLURRIES  22  20  92 NW23G30   29.79R WCI   6
RED WING       CLOUDY    25  16  68 NW10      29.84R WCI  15
STANTON        FAIR      23  17  77 NW16      29.85R WCI   9
DODGE CENTER   CLOUDY    21  19  93 NW15      29.81R WCI   8
WINONA         LGT SNOW  28  25  86 NW8       29.77R WCI  20
AUSTIN         MOCLDY    23  19  86 N15G26    29.81R WCI  10
PRESTON        CLOUDY    24  20  87 N15G22    29.77R WCI  11
$$
ABBREVIATIONS USED IN REMARKS
   TC - TEMPERATURES IN CELSIUS
  WCI - WIND CHILL INDEX
   HX - HEAT INDEX
  VSB - VISIBILITY
$$




USA.gov is the U.S. government's official web portal to all federal, state and local government web resources and services.